Hourly Data Report for October 20, 2015

All times are specified in Local Standard Time (LST). Add 1 hour to adjust for Daylight Saving Time where and when it is observed.

GJOA HAVEN A
NUNAVUT

68°38'08.000" N
95°51'01.000" W
46.90 m
2302337
71597
YHK

Download Data

Hourly Data (October 2015)
Hourly Data Report for October 20, 2015
Temp Definition
°C
Dew Point Temp Definition
°C
Rel Hum Definition
%
Wind Dir Definition
10's deg

Wind Spd Definition
km/h
Visibility Definition
km
Stn Press Definition
kPa
Hmdx Definition


Wind Chill Definition


Weather Definition


TIME
00:00 Legend Double Dagger -11.2 -12.8 88 25 11 14.5 101.32   -17 Snow
01:00 Legend Double Dagger -10.2 -12.1 86 24 21 16.1 101.27   -18 Snow
02:00 Legend Double Dagger -9.6 -11.5 86 25 18 16.1 101.24   -17 Snow
03:00 Legend Double Dagger -9.2 -10.4 91 20 26 16.1 101.17   -18 Snow
04:00 Legend Double Dagger -9.4 -11.2 87 23 34 14.5 101.13   -19 Snow
05:00 Legend Double Dagger -10.0 -11.7 87 21 41 4.0 101.06   -21 Snow
06:00 Legend Double Dagger -10.7 -12.2 89 22 45 2.4 100.98   -22 Snow,Blowing Snow
07:00 Legend Double Dagger -11.3 -12.8 89 21 48 1.6 100.88   -23 Snow,Blowing Snow
08:00 Legend Double Dagger -11.8 -13.3 89 21 52 1.2 100.79   -24 Snow,Blowing Snow
09:00 Legend Double Dagger -11.8 -13.1 90 21 58 0.8 100.66   -25 Moderate Snow,Blowing Snow
10:00 Legend Double Dagger -12.1 -13.4 90 21 52 0.8 100.60   -25 Moderate Snow,Blowing Snow
11:00 Legend Double Dagger -11.8 -13.4 88 21 54 1.2 100.52   -25 Snow,Blowing Snow
12:00 Legend Double Dagger -11.3 -13.2 86 22 52 1.6 100.51   -24 Snow,Blowing Snow
13:00 Legend Double Dagger -9.8 -11.6 87 22 50 4.0 100.44   -21 Snow
14:00 Legend Double Dagger -9.0 -10.8 87 23 48 4.0 100.39   -20 Snow
15:00 Legend Double Dagger -8.8 -10.2 90 24 45 2.8 100.35   -20 Snow
16:00 Legend Double Dagger -8.3 -9.4 92 24 45 4.0 100.30   -19 Snow
17:00 Legend Double Dagger -7.7 -8.4 95 24 43 6.4 100.28   -18 Freezing Rain,Fog
18:00 Legend Double Dagger -6.8 -7.3 96 24 39 4.0 100.30   -16 Freezing Rain,Fog
19:00 Legend Double Dagger -8.5 -9.4 93 30 28 16.1 100.41   -17 LegendNANA
20:00 Legend Double Dagger -8.2 -9.2 93 30 32 16.1 100.46   -17 LegendNANA
21:00 Legend Double Dagger -8.7 -10.2 89 31 34 16.1 100.53   -18 LegendNANA
22:00 Legend Double Dagger -10.7 -11.9 91 32 34 14.5 100.62   -21 LegendNANA
23:00 Legend Double Dagger -9.8 -11.0 91 33 37 4.8 100.75   -20 Snow

Notes on Data Quality.

Legend

  • E = Estimated
  • M = Missing
  • NA = Not Available
  • ‡ = Partner data that is not subject to review by the National Climate Archives
Date modified: